Regional Weather Roundup
Issued by NWS

Home | Current Version | Previous Version | Text Only | Print | Product List | Glossary On
Versions: 1 2 3 4 5 6 7 8 9 10 11 12 13 14 15 16 17 18 19 20 21 22 23 24 25 26 27 28 29 30 31 32 33 34 35 36 37 38 39 40 41 42 43 44 45 46 47 48 49 50
000
ASUS42 KFFC 191003
RWRGA
WEATHER ROUNDUP FOR GEORGIA
NATIONAL WEATHER SERVICE PEACHTREE CITY GA
600 AM EDT FRI SEP 19 2014

NOTE: "FAIR" INDICATES FEW OR NO CLOUDS BELOW 12,000 FEET WITH NO
SIGNIFICANT WEATHER AND/OR OBSTRUCTIONS TO VISIBILITY.

* = USE WITH CAUTION. THE STATIONS MARKED WITH AN ASTERISK MAY NOT
REPORT WEATHER SUCH AS PRECIPITATION, FOG, OR THUNDER AND ARE NOT
QUALITY CONTROLLED BY NWS.

THE REMARK "TC" DENOTES TEMPERATURE READING IN DEGREES CELSIUS.

GAZ001>058-191100-
NORTH GEORGIA

CITY           SKY/WX    TMP DP  RH WIND       PRES   REMARKS
ATLANTA        CLOUDY    70  66  87 E7        30.03R
ATHENS         MOCLDY    66  64  93 CALM      30.04R
CHAMBLEE       MOCLDY    68  64  87 VRB3      30.03S
PEACHTREE CITY CLOUDY    67  65  93 CALM      30.02S FOG
ROME           CLEAR     62  60  93 N3        30.02S
WEST ATLANTA   MOCLDY    66  64  93 CALM      30.02S
GAINESVILLE    MOCLDY    66  63  90 NE6       30.07R
CARTERSVILLE   MOCLDY    62  60  93 CALM      30.03R


CITY           SKY/WX    TMP DP  RH WIND       PRES   REMARKS
DALTON*        CLEAR     59  59 100 CALM      30.04R
MARIETTA       MOCLDY    67  66  97 NE2       30.03R
$$

GAZ059>098-102>109-191100-
CENTRAL GEORGIA

CITY           SKY/WX    TMP DP  RH WIND       PRES   REMARKS
AUGUSTA-BUSH   MOCLDY    65  65 100 CALM      30.01R FOG
AUGUSTA-DANIEL MOCLDY    71  68  90 NE3       30.03R
COLUMBUS       MOCLDY    69  66  90 E5        29.98R
MACON          MOCLDY    64  64 100 CALM      30.00R FOG
ROBINS AFB     MOCLDY    67  66  98 CALM      29.99R


CITY           SKY/WX    TMP DP  RH WIND       PRES   REMARKS
LAGRANGE*      MOCLDY    69  69  98 CALM      30.00R FOG
SYLVANIA*      PTCLDY    71  71  98 CALM      30.02R
MILLEDGEVILLE* MOCLDY    68  68 100 CALM      30.01R FOG
$$

GAZ099>101-110>166-191100-
SOUTH GEORGIA

CITY           SKY/WX    TMP DP  RH WIND       PRES   REMARKS
SAVANNAH       PTCLDY    71  68  90 N3        29.99R
VALDOSTA       CLOUDY    71  69  93 NE3       29.96R
ALMA           MOCLDY    72  71  97 CALM      29.97S FOG
ST SIMONS      MOCLDY    76  73  91 CALM      29.96R
FT STEWART     PTCLDY    70  69  95 NW2       29.97S
ALBANY         MOCLDY    71  68  90 CALM      29.99R
HUNTER AFB     PTCLDY    71  70  98 N1        29.97R
MOODY AFB      CLOUDY    70  68  95 N2        29.96R
BRUNSWICK      CLOUDY    73  72  94 CALM      29.98R


CITY           SKY/WX    TMP DP  RH WIND       PRES   REMARKS
BAINBRIDGE*    CLOUDY    73  72  94 NE6       29.95S
MOULTRIE*      MOCLDY    72  70  94 NE5       29.97R
VIDALIA*       PTCLDY    72  70  94 NE5       30.00S
WAYCROSS*      MOCLDY    74  74  99 CALM      29.97S FOG
DOUGLAS*       PTCLDY    72  72 100 NE3       29.99S
$$


USA.gov is the U.S. government's official web portal to all federal, state and local government web resources and services.